TimeAKDT,TemperatureF,Dew PointF,Humidity,Sea Level PressureIn,VisibilityMPH,Wind Direction,Wind SpeedMPH,Gust SpeedMPH,PrecipitationIn,Events,Conditions,WindDirDegrees,DateUTC
12:53 AM,43.0,37.9,82,30.02,10.0,East,3.5,-,N/A,,Clear,80,2013-05-25 08:53:00
1:53 AM,39.9,36.0,86,30.02,10.0,NE,3.5,-,N/A,,Clear,50,2013-05-25 09:53:00
2:53 AM,39.0,34.0,82,30.02,10.0,Calm,Calm,-,N/A,,Clear,0,2013-05-25 10:53:00
3:53 AM,37.0,33.1,86,30.01,10.0,Calm,Calm,-,N/A,,Clear,0,2013-05-25 11:53:00
4:53 AM,37.9,34.0,86,30.00,10.0,ENE,4.6,-,N/A,,Clear,70,2013-05-25 12:53:00
5:53 AM,39.9,35.1,83,30.00,10.0,Calm,Calm,-,N/A,,Clear,0,2013-05-25 13:53:00
6:53 AM,43.0,37.0,80,30.00,10.0,Calm,Calm,-,N/A,,Clear,0,2013-05-25 14:53:00
7:53 AM,46.0,37.0,71,30.00,10.0,East,4.6,-,N/A,,Clear,100,2013-05-25 15:53:00
8:53 AM,48.9,39.0,69,29.99,10.0,Calm,Calm,-,N/A,,Clear,0,2013-05-25 16:53:00
9:53 AM,51.1,41.0,68,30.00,10.0,South,4.6,-,N/A,,Clear,190,2013-05-25 17:53:00
10:53 AM,53.1,39.0,59,29.99,10.0,SSW,4.6,-,N/A,,Clear,200,2013-05-25 18:53:00
11:53 AM,54.0,37.0,53,29.98,10.0,WSW,8.1,-,N/A,,Clear,240,2013-05-25 19:53:00
12:53 PM,57.9,37.9,47,29.97,10.0,West,10.4,-,N/A,,Clear,260,2013-05-25 20:53:00
1:53 PM,54.0,39.0,57,29.96,10.0,WSW,12.7,-,N/A,,Clear,250,2013-05-25 21:53:00
2:53 PM,52.0,39.9,63,29.97,10.0,WSW,13.8,-,N/A,,Clear,250,2013-05-25 22:53:00
3:53 PM,54.0,39.9,59,29.96,10.0,West,13.8,-,N/A,,Clear,260,2013-05-25 23:53:00
4:53 PM,55.0,39.0,55,29.95,10.0,West,12.7,-,N/A,,Clear,260,2013-05-26 00:53:00
5:53 PM,54.0,39.0,57,29.94,10.0,WSW,10.4,-,N/A,,Clear,250,2013-05-26 01:53:00
6:53 PM,55.9,37.0,49,29.93,10.0,West,8.1,-,N/A,,Clear,260,2013-05-26 02:53:00
7:53 PM,55.0,37.0,51,29.93,10.0,WSW,6.9,-,N/A,,Clear,240,2013-05-26 03:53:00
8:53 PM,54.0,36.0,51,29.93,10.0,SW,4.6,-,N/A,,Clear,230,2013-05-26 04:53:00
9:53 PM,51.1,36.0,56,29.93,10.0,SW,4.6,-,N/A,,Clear,220,2013-05-26 05:53:00
10:53 PM,48.9,37.0,64,29.93,10.0,South,4.6,-,N/A,,Clear,190,2013-05-26 06:53:00
11:53 PM,46.9,37.0,68,29.94,10.0,Calm,Calm,-,N/A,,Clear,0,2013-05-26 07:53:00